Villa Grove, CO

4:14 PM MST on February 22, 2017 (GMT -0700)
Monarch Pass

Weather History for KMYP - August, 2014

Change the Weather History Date:

Saturday, August 30, 2014

  Actual Average (KGUC) Record (KGUC)
Temperature  
Mean Temperature 48 °F -  
Max Temperature 57 °F 72 °F 82 °F (1998)
Min Temperature 39 °F 39 °F 32 °F (2002)
Degree Days  
Heating Degree Days 17    
Moisture  
Dew Point 32 °F    
Average Humidity 61    
Maximum Humidity 75    
Minimum Humidity 38    
Precipitation  
Precipitation 0.00 in - - ()
Sea Level Pressure  
Sea Level Pressure 30.63 in    
Wind  
Wind Speed 15 mph (WSW)    
Max Wind Speed 33 mph    
Max Gust Speed 41 mph    
Visibility 10 miles    
Events      
Averages and records for this station are not official NWS values.
T = Trace of Precipitation, MM = Missing Value Source: NWS Daily Summary

Daily Weather History Graph

Daily Weather History Graph

Search for Another Location

Airport or City:

Trip Planner

Search our weather history database for the weather conditions in past years. The results will help you decide how hot, cold, wet, or windy it might be!

Date:

Astronomy

Aug. 30, 2014 Rise Set
Actual Time 6:32 AM MDT 7:37 PM MDT
Civil Twilight 6:05 AM MDT 8:04 PM MDT
Nautical Twilight 5:33 AM MDT 8:36 PM MDT
Astronomical Twilight 4:59 AM MDT 9:10 PM MDT
Moon 11:18 AM MDT (8/30) 10:18 PM MDT (8/30)
Length of Visible Light 13h 59m
Length of Day
13h 04m
Waxing Crescent, 23% of the Moon is Illuminated
Aug 30
Waxing Crescent
Sep 2
First Quarter
Sep 8
Full
Sep 15
Last Quarter
Sep 24
New

Hourly Weather History & Observations

Time (MDT) Temp. Windchill Dew Point Humidity Pressure Visibility Wind Dir Wind Speed Gust Speed Precip Events Conditions
12:03 AM 42.8 °F 40.1 °F 28.4 °F 57% 30.69 in 10.0 mi WSW 4.6 mph - N/A   Clear
12:25 AM 41.0 °F 34.7 °F 30.2 °F 65% 30.68 in 10.0 mi SW 10.4 mph - N/A   Clear
12:39 AM 41.0 °F 34.3 °F 30.2 °F 65% 30.68 in 10.0 mi WSW 11.5 mph - N/A   Clear
1:05 AM 41.0 °F 33.9 °F 30.2 °F 65% 30.68 in 10.0 mi WSW 12.7 mph - N/A   Clear
1:19 AM 41.0 °F 33.9 °F 32.0 °F 70% 30.68 in 10.0 mi WSW 12.7 mph - N/A   Clear
1:38 AM 41.0 °F 34.3 °F 30.2 °F 65% 30.67 in 10.0 mi West 11.5 mph - N/A   Clear
1:47 AM 42.8 °F 36.6 °F 30.2 °F 61% 30.67 in 10.0 mi West 11.5 mph - N/A   Clear
2:41 AM 41.0 °F 34.7 °F 30.2 °F 65% 30.67 in 10.0 mi West 10.4 mph - N/A   Clear
3:00 AM 41.0 °F 37.1 °F 30.2 °F 65% 30.67 in 10.0 mi WSW 5.8 mph - N/A   Clear
3:20 AM 41.0 °F 35.8 °F 30.2 °F 65% 30.66 in 10.0 mi SW 8.1 mph - N/A   Clear
3:33 AM 41.0 °F 35.8 °F 30.2 °F 65% 30.66 in 10.0 mi WSW 8.1 mph - N/A   Clear
3:55 AM 41.0 °F 34.7 °F 30.2 °F 65% 30.66 in 10.0 mi SW 10.4 mph - N/A   Clear
4:12 AM 41.0 °F 35.2 °F 30.2 °F 65% 30.65 in 10.0 mi SW 9.2 mph - N/A   Clear
4:44 AM 41.0 °F 33.5 °F 32.0 °F 70% 30.64 in 10.0 mi SW 13.8 mph - N/A   Clear
4:59 AM 39.2 °F 31.2 °F 32.0 °F 75% 30.64 in 10.0 mi WSW 13.8 mph - N/A   Clear
5:23 AM 39.2 °F 32.0 °F 32.0 °F 75% 30.64 in 10.0 mi WSW 11.5 mph - N/A   Clear
5:35 AM 39.2 °F 31.6 °F 32.0 °F 75% 30.64 in 10.0 mi SW 12.7 mph - N/A   Clear
5:50 AM 39.2 °F 31.6 °F 32.0 °F 75% 30.64 in 10.0 mi SW 12.7 mph - N/A   Clear
6:41 AM 39.2 °F 31.2 °F 32.0 °F 75% 30.64 in 10.0 mi SW 13.8 mph - N/A   Clear
7:04 AM 39.2 °F 30.5 °F 32.0 °F 75% 30.65 in 10.0 mi WSW 16.1 mph - N/A   Clear
7:24 AM 39.2 °F 29.3 °F 32.0 °F 75% 30.65 in 10.0 mi WSW 20.7 mph - N/A   Clear
8:04 AM 41.0 °F 32.5 °F 32.0 °F 70% 30.65 in 10.0 mi WSW 17.3 mph - N/A   Clear
8:21 AM 41.0 °F 32.8 °F 32.0 °F 70% 30.65 in 10.0 mi WSW 16.1 mph - N/A   Clear
9:29 AM 44.6 °F 36.6 °F 33.8 °F 66% 30.65 in 10.0 mi WSW 19.6 mph 24.2 mph N/A   Clear
9:50 AM 46.4 °F 39.2 °F 33.8 °F 62% 30.66 in 10.0 mi WSW 18.4 mph 23.0 mph N/A   Clear
10:12 AM 46.4 °F 39.8 °F 33.8 °F 62% 30.66 in 10.0 mi SW 16.1 mph - N/A   Clear
10:53 AM 48.2 °F - 33.8 °F 58% 30.66 in 10.0 mi SW 16.1 mph 21.9 mph N/A   Clear
11:23 AM 50.0 °F - 33.8 °F 54% 30.66 in 10.0 mi SW 15.0 mph 25.3 mph N/A   Clear
11:44 AM 50.0 °F - 32.0 °F 50% 30.65 in 10.0 mi West 25.3 mph 31.1 mph N/A   Clear
12:21 PM 51.8 °F - 32.0 °F 47% 30.65 in 10.0 mi SW 19.6 mph 27.6 mph N/A   Clear
12:44 PM 53.6 °F - 32.0 °F 44% 30.64 in 10.0 mi West 25.3 mph 31.1 mph N/A   Clear
12:57 PM 53.6 °F - 32.0 °F 44% 30.64 in 10.0 mi West 23.0 mph 31.1 mph N/A   Clear
2:22 PM 53.6 °F - 32.0 °F 44% 30.62 in 10.0 mi West 29.9 mph 39.1 mph N/A   Mostly Cloudy
3:01 PM 57.2 °F - 32.0 °F 38% 30.61 in 10.0 mi West 27.6 mph 34.5 mph N/A   Scattered Clouds
3:19 PM 55.4 °F - 32.0 °F 41% 30.61 in 10.0 mi West 25.3 mph 36.8 mph N/A   Scattered Clouds
3:44 PM 53.6 °F - 32.0 °F 44% 30.60 in 10.0 mi West 31.1 mph 38.0 mph N/A   Clear
3:59 PM 55.4 °F - 32.0 °F 41% 30.59 in 10.0 mi WSW 24.2 mph 39.1 mph N/A   Clear
4:18 PM 55.4 °F - 32.0 °F 41% 30.58 in 10.0 mi West 33.4 mph 40.3 mph N/A   Scattered Clouds
4:38 PM 53.6 °F - 32.0 °F 44% 30.58 in 10.0 mi West 33.4 mph 41.4 mph N/A   Overcast
5:42 PM 50.0 °F - 32.0 °F 50% 30.59 in 10.0 mi West 26.5 mph 34.5 mph N/A   Overcast
5:46 PM 50.0 °F - 32.0 °F 50% 30.60 in 10.0 mi WNW 17.3 mph 34.5 mph N/A   Overcast
6:33 PM 46.4 °F 38.1 °F 33.8 °F 62% 30.58 in 10.0 mi West 24.2 mph 29.9 mph N/A   Scattered Clouds
6:54 PM 46.4 °F 37.7 °F 33.8 °F 62% 30.57 in 10.0 mi West 26.5 mph 36.8 mph N/A   Clear
8:14 PM 44.6 °F 36.6 °F 33.8 °F 66% 30.57 in 10.0 mi WSW 19.6 mph - N/A   Scattered Clouds
8:35 PM 44.6 °F 36.4 °F 33.8 °F 66% 30.57 in 10.0 mi WSW 20.7 mph - N/A   Clear
9:02 PM 44.6 °F 36.6 °F 33.8 °F 66% 30.58 in 10.0 mi WSW 19.6 mph - N/A   Clear
9:17 PM 44.6 °F 36.1 °F 33.8 °F 66% 30.59 in 10.0 mi WSW 21.9 mph - N/A   Clear
9:44 PM 44.6 °F 36.1 °F 33.8 °F 66% 30.58 in 10.0 mi WSW 21.9 mph - N/A   Clear
9:46 PM 44.6 °F 36.1 °F 33.8 °F 66% 30.58 in 10.0 mi WSW 21.9 mph - N/A   Clear
10:19 PM 44.6 °F 36.1 °F 33.8 °F 66% 30.59 in 10.0 mi WSW 21.9 mph - N/A   Clear
10:39 PM 44.6 °F 35.9 °F 33.8 °F 66% 30.58 in 10.0 mi WSW 23.0 mph - N/A   Clear
11:00 PM 44.6 °F 35.3 °F 32.0 °F 61% 30.57 in 10.0 mi WSW 26.5 mph - N/A   Clear
11:14 PM 44.6 °F 35.3 °F 33.8 °F 66% 30.56 in 10.0 mi WSW 26.5 mph - N/A   Clear
11:29 PM 44.6 °F 35.1 °F 33.8 °F 66% 30.56 in 10.0 mi WSW 27.6 mph - N/A   Clear